Regional Weather Roundup
Issued by NWS

Home | Current Version | Previous Version | Graphics & Text | Print | Product List | Glossary On
Versions: 1 2 3 4 5 6 7 8 9 10 11 12 13 14 15 16 17 18 19 20 21 22 23 24 25 26 27 28 29 30 31 32 33 34 35 36 37 38 39 40 41 42 43 44 45 46 47 48 49 50
000
ASUS43 KLSX 062007
RWRMO

WEATHER SUMMARY FOR MISSOURI
NATIONAL WEATHER SERVICE SPRINGFIELD MO
300 PM CDT MON JUL 06 2015

NOTE: "FAIR" INDICATES FEW OR NO CLOUDS BELOW 12,000 FEET WITH NO
       SIGNIFICANT WEATHER AND/OR OBSTRUCTIONS TO VISIBILITY.
       CURRENT SKY AND/OR WEATHER CONDITIONS ARE NOT AVAILABLE FOR
       CHILLICOTHE AND FARMINGTON.

MOZ001>031-035>038-043-044-053-054-062100-
...NORTHERN AND WESTERN MISSOURI...

CITY           SKY/WX    TMP DP  RH WIND       PRES   REMARKS
KANSAS CTY INT PTSUNNY   88  76  67 S17       29.82F HX  99
KANSAS C DTWN  MOSUNNY   91  76  61 S15G25    29.81F HX 103
LEE`S SUMMIT   PTSUNNY   87  74  64 S10G20    29.85F HX  95
ST JOSEPH      TSTM      73  72  96 MISG      29.86R VSB 1/2
CHILLICOTHE      N/A     87  76  69 S8        29.87F HX  97
KIRKSVILLE     PTSUNNY   89  76  65 SW9       29.89F HX 100

$$
MOZ066>068-077>081-088>096-101>105-062100-
...SOUTHWEST MISSOURI...

CITY           SKY/WX    TMP DP  RH WIND       PRES   REMARKS
SPRINGFIELD    PTSUNNY   84  72  67 S15       29.98F
JOPLIN         PTSUNNY   87  75  67 S18       29.95F HX  96

$$
MOZ032>034-039>042-045>050-055>058-069>072-062100-
...CENTRAL MISSOURI...

CITY           SKY/WX    TMP DP  RH WIND       PRES   REMARKS
COLUMBIA       PTSUNNY   86  75  69 S17G24    29.93F HX  95
JEFFERSON CITY PTSUNNY   87  74  64 S14G20    29.91F HX  95
ROLLA          CLOUDY    82  75  79 S8        29.96F
SEDALIA        MOSUNNY   89  75  63 S15       29.92F HX  99
WARRENSBURG    MOSUNNY   88  73  62 S12G21    29.88F HX  96
OSAGE BEACH    CLOUDY    86  73  66 S14G20    29.95F HX  93

$$
MOZ051-052-059>065-062100-
...EAST CENTRAL MISSOURI...

CITY           SKY/WX    TMP DP  RH WIND       PRES   REMARKS
ST LOUIS INTL  CLOUDY    81  72  74 SE5       29.96F
SPIRIT OF STL  LGT RAIN  77  70  79 W9        29.94S
ST CHARLES     CLOUDY    83  73  72 SE14      29.93S

$$
MOZ072>076-082>087-097>100-106>115-062100-
...SOUTH CENTRAL AND SOUTHEAST MISSOURI...

CITY           SKY/WX    TMP DP  RH WIND       PRES   REMARKS
CAPE GIRARDEAU CLOUDY    84  75  74 S7        30.01F HX  92
FARMINGTON     PTSUNNY   84  73  70 S13       30.04F HX  91
POPLAR BLUFF   PTSUNNY   84  75  74 S13       30.00F HX  92
WEST PLAINS    CLOUDY    83  72  69 S10       30.02F

$$



USA.gov is the U.S. government's official web portal to all federal, state and local government web resources and services.